Showing default

GHGSAT-C13, 64548

Orbit data source: Space-Track

GHGSAT-C13, 64548 is a payload satellite owned by GHG (CA) in SSO that was launched on Mon, 23 Jun 2025 UTC via an FALCON 9 launch vehicle from the Air Force Western Test Range (AFWTR). Payload-class satellites include a variety of spacecraft equipped with specific instruments for various scientific and technological missions. These include communications satellites like Starlink; space stations such as the ISS; scientific satellites like the Hubble; Earth observation satellites from companies like Planet Labs, Umbra, and HawkEye 360; GPS; miniature CubeSats for education and research; and military/defense satellites.

Loading next visibility...
Identifier
64548, 2025-135W
Orbit
SSO
Country
Flag of CACA
Related business
Manufacturer
UTIAS-SFL
Mission
Operational Commercial Earth Obs Sci
Bus & Motor
NEMO-V1, Unknown motor
Mass
15 kg wet, 15 kg dry
Launch date (UTC)
2025-06-23 (1 year ago)
Launch vehicle
FALCON 9
Launch site
Air Force Western Test Range (AFWTR)
Object type
Payload
Rocket body
Debris
Shape & HBR
Box, 1.0 m
Radar Cross Section
0.100 m², Medium (>0.1 m² and < 1m²)

Expand to show TLE details & history
Last TLE update: 14 hours ago

TLE from 14 hours ago
0 GHGSAT-C13
1 64548U 25135W   26171.40994789  .00004860  00000-0  22138-3 0  9997
2 64548  97.4781 286.7590 0002533  99.7002 260.4520 15.21144048 55348
Epoch: 2026-06-20T09:50Z
TLE epoch observation values (Epoch: 2026-06-20T09:50:19.497Z)
Latitude
-0.00001°
Longitude
-129.44721°
Altitude
505.768 km
Speed
7.611 km/s
True Right ascension
19h 07m 02s
True Declination
0° 00' 00"
Sunlit
Object was in full shadow at epoch
Visualization orbit readout
Latitude
Unknown
Longitude
Unknown
Altitude
Unknown
Speed
Unknown
Apparent Right ascension
Unknown
Apparent Declination
Unknown
Sunlit
N/A
Visualization observer readout
Local Sidereal Time
10:19:04
Azimuth
Unknown
Elevation
Unknown
Doppler factor
Unknown
Orbital elements
Apogee altitude
501.098 km
Perigee altitude
497.614 km
Semi-major axis
6,877.493 km
Eccentricity
0.00025
Inclination
97.4781°
RAAN
286.759°
Arg. of periapsis
99.7002°
True anomaly
260.42338°
Mean anomaly
260.452°
Eccentric anomaly
260.43769°
Mean motion
3.80538 °/min
Orbital period
94.6 mins
BSTAR
0.00022138
Loading maneuver chart data...
Computing Atmospheric mass density...
Loading historical data...
Loading historical data...
Loading historical data...
Loading historical data...
Loading historical data...
Loading historical data...
Loading historical data...

Documentation

Showing up to 5 results
|